"Time","Temp","Dewpoint","Humidity","Pressure","Direction","Speed","Gust","Precip","PrecipRate"
"00:04:59","69.5","68","95","29.87","355","0.3","2.3","0.00","0.00"
"00:09:55","69.6","68.1","95","29.87","355","1","3","0.00","0.00"
"00:14:59","69.5","68","95","29.87","350","1.4","4","0.00","0.00"
"00:19:56","69.6","68.1","95","29.87","345","0.6","3.5","0.00","0.00"
"00:24:58","69.6","68.1","95","29.87","344","0.9","3","0.00","0.00"
"00:29:59","69.6","68.1","95","29.87","337","1.8","4","0.00","0.00"
"00:34:56","69.7","68.2","95","29.87","351","1.2","3.5","0.01","0.01"
"00:39:56","69.7","68.2","95","29.87","355","1.2","3.5","0.01","0.01"
"00:44:57","69.7","68.2","95","29.87","348","1.2","5","0.01","0.01"
"00:49:58","69.7","68.2","95","29.86","344","1.5","4","0.01","0.01"
"00:54:56","69.6","68.1","95","29.86","321","1","4","0.02","0.02"
"00:59:56","69.6","68.2","95.4","29.86","319","1.5","4","0.02","0.02"
"01:04:57","69.6","68.4","96","29.86","329","1.1","3.5","0.02","0.02"
"01:09:58","69.5","68.2","95.5","29.86","339","0.8","4","0.02","0.02"
"01:14:59","69.5","68","95","29.86","341","0","1.2","0.02","0.02"
"01:19:56","69.4","68.2","96","29.85","340","0","0","0.02","0.02"
"01:24:58","69.4","68.2","96","29.85","340","0","0","0.02","0.02"
"01:29:59","69.4","68.2","96","29.85","340","0","0","0.02","0.02"
"01:34:56","69.4","68.2","96","29.85","340","0","0","0.02","0.02"
"01:39:57","69.4","68.2","96","29.85","334","0","0","0.02","0.01"
"01:44:58","69.4","68.2","96","29.86","333","0","0","0.02","0.01"
"01:49:59","69.4","68.2","96","29.86","333","0","0","0.02","0.01"
"01:54:57","69.4","68.2","96","29.86","313","0","0","0.02","0.01"
"01:59:58","69.4","68.2","96","29.86","313","0","0","0.02","0.00"
"02:04:59","69.4","68.2","96","29.86","313","0","0","0.02","0.00"
"02:09:57","69.3","68.1","96","29.86","313","0","0","0.02","0.00"
"02:14:57","69.3","68.1","96","29.86","312","0","0","0.02","0.00"
"02:19:59","69.2","68","96","29.86","312","0","0","0.02","0.00"
"02:24:56","69.2","68","96","29.86","313","0","0","0.02","0.00"
"02:29:57","69.1","67.9","96","29.86","313","0","0","0.02","0.00"
"02:34:58","69","67.8","96","29.86","313","0","0","0.02","0.00"
"02:39:58","68.9","67.7","96","29.86","312","0","0","0.02","0.00"
"02:44:56","68.8","67.6","96","29.86","312","0","0","0.02","0.00"
"02:49:57","68.8","67.6","96","29.85","312","0","0","0.02","0.00"
"02:54:58","68.8","67.6","96","29.85","312","0","0","0.02","0.00"
"02:59:56","68.7","67.5","96","29.85","229","0","1.2","0.02","0.00"
"03:04:58","68.6","67.7","97","29.85","257","0","1.2","0.02","0.00"
"03:09:56","68.6","67.7","97","29.85","257","0","0","0.02","0.00"
"03:14:56","68.6","67.7","97","29.85","257","0","0","0.02","0.00"
"03:19:57","68.5","67.5","96.7","29.85","257","0","0","0.02","0.00"
"03:24:58","68.4","67.5","97","29.85","257","0","1","0.02","0.00"
"03:29:59","68.4","67.5","97","29.85","256","0","0","0.02","0.00"
"03:34:57","68.3","67.1","96","29.85","265","0","0","0.02","0.00"
"03:39:57","68.2","67","96","29.85","240","0","0","0.02","0.00"
"03:44:56","68.1","66.9","96","29.85","240","0","0","0.02","0.00"
"03:49:58","68","66.9","96","29.85","287","0","0","0.02","0.00"
"03:54:59","68","66.9","96.4","29.85","286","0","0","0.02","0.00"
"03:59:57","67.9","66.9","96.7","29.85","286","0","0","0.02","0.00"
"04:04:57","67.9","67","97","29.85","286","0","0","0.02","0.00"
"04:09:59","67.9","67","97","29.85","286","0","0","0.02","0.00"
"04:14:59","67.8","66.9","97","29.85","286","0","0","0.02","0.00"
"04:19:57","67.8","66.9","97","29.85","286","0","0","0.02","0.00"
"04:24:58","67.8","66.9","97","29.85","286","0","0","0.02","0.00"
"04:29:59","67.8","66.8","96.8","29.85","286","0","0","0.02","0.00"
"04:34:56","67.7","66.6","96.2","29.85","286","0","0","0.02","0.00"
"04:39:56","67.7","66.6","96.4","29.85","286","0","0","0.02","0.00"
"04:44:58","67.7","66.6","96.4","29.86","286","0","0","0.02","0.00"
"04:49:59","67.6","66.5","96.4","29.86","286","0","0","0.02","0.00"
"04:54:56","67.6","66.4","96","29.86","286","0","0","0.02","0.00"
"04:59:57","67.6","66.6","96.5","29.86","286","0","0","0.02","0.00"
"05:04:59","67.6","66.7","97","29.86","286","0","0","0.02","0.00"
"05:09:57","67.7","66.8","97","29.86","285","0","1","0.02","0.00"
"05:14:57","67.7","66.8","97","29.87","285","0","1.2","0.02","0.00"
"05:19:58","67.7","66.6","96.4","29.87","284","0","0","0.02","0.00"
"05:24:56","67.7","66.5","96","29.87","284","0","0","0.02","0.00"
"05:29:57","67.6","66.4","96","29.87","284","0","0","0.02","0.00"
"05:34:58","67.4","66.2","96","29.87","265","0","0","0.02","0.00"
"05:39:59","67.4","66.2","96","29.87","316","0.5","4","0.02","0.00"
"05:44:56","67.4","66.2","96","29.87","326","0.8","3.5","0.02","0.00"
"05:49:58","67.4","66.2","96","29.87","326","1.3","4","0.02","0.00"
"05:54:59","67.4","66.2","96","29.87","303","2","5","0.02","0.00"
"05:59:57","67.4","66.2","96","29.87","266","1.2","4.6","0.02","0.00"
"06:04:59","67.4","66.2","96","29.87","272","1.1","2.3","0.02","0.00"
"06:09:58","67.4","66.2","96","29.87","279","0.1","1.2","0.02","0.00"
"06:14:59","67.4","66.2","96","29.88","279","0.1","1.2","0.02","0.00"
"06:19:57","67.4","66.2","96","29.88","279","0","1","0.02","0.00"
"06:24:59","67.3","66.1","96","29.88","279","0","1.2","0.02","0.00"
"06:29:57","67.3","66.1","96","29.88","5","0","0","0.02","0.00"
"06:34:59","67.2","66","96","29.88","5","0","1","0.02","0.00"
"06:39:58","67.2","66","96","29.88","5","0","0","0.02","0.00"
"06:44:59","67.2","66","96","29.88","5","0","0","0.02","0.00"
"06:49:56","67.2","66","96.1","29.88","5","0","0","0.02","0.00"
"06:54:56","67.3","66.4","97","29.88","5","0.1","1.2","0.02","0.00"
"06:59:58","67.4","66.5","97","29.89","5","0","1.2","0.02","0.00"
"07:04:59","67.6","66.7","97","29.89","5","0","1.2","0.02","0.00"
"07:09:57","67.8","66.9","97","29.89","10","0.1","1.2","0.02","0.00"
"07:14:56","67.9","67","97","29.89","94","0.8","2.3","0.02","0.00"
"07:19:57","68.2","67.3","97","29.89","94","0","1.2","0.02","0.00"
"07:24:58","68.5","67.6","96.8","29.89","94","0","0","0.02","0.00"
"07:29:58","68.8","67.6","96","29.89","94","0","0","0.02","0.00"
"07:34:59","69.1","67.9","96","29.89","94","0","0","0.02","0.00"
"07:39:59","69.4","68.2","96","29.89","94","0.4","2.3","0.02","0.00"
"07:44:56","69.7","68.5","96","29.89","94","0.6","2.3","0.02","0.00"
"07:49:56","70","68.6","95.3","29.89","30","0.8","2.3","0.02","0.00"
"07:54:57","70.4","68.9","95","29.89","17","0.7","2.3","0.02","0.00"
"07:59:57","70.9","69.3","94.8","29.89","1","0.9","3.5","0.02","0.00"
"08:04:58","71.3","69.5","93.9","29.89","200","1.1","4","0.02","0.00"
"08:09:55","71.7","69.5","92.7","29.89","200","0.6","2.3","0.02","0.00"
"08:14:59","72","69.3","91.3","29.90","200","0.8","3","0.02","0.00"
"08:19:56","72.3","69.4","90.6","29.90","200","1.3","3.5","0.02","0.00"
"08:24:56","72.7","69.6","90","29.90","200","0.2","2.3","0.02","0.00"
"08:29:57","73.1","69.8","89.3","29.90","215","0.6","3.5","0.02","0.00"
"08:34:58","73.6","70","88.5","29.90","216","0.6","3","0.02","0.00"
"08:39:58","74","70.3","88.2","29.90","216","1.2","3.5","0.02","0.00"
"08:44:59","74.3","70.5","88.1","29.90","214","1","3.5","0.02","0.00"
"08:49:56","74.7","71","88.4","29.90","130","1.4","3.5","0.02","0.00"
"08:54:57","75.2","70.7","86.2","29.90","148","1.4","4","0.02","0.00"
"08:59:57","75.5","71","86.1","29.91","172","1.1","3.5","0.02","0.00"
"09:04:58","76","71.3","85.3","29.91","181","2.4","7","0.02","0.00"
"09:09:56","76.4","71.4","84.5","29.91","215","2.5","6","0.02","0.00"
"09:14:59","76.8","71.5","83.7","29.91","169","2.3","6","0.02","0.00"
"09:19:55","77.5","71.9","83.1","29.90","191","3.2","6","0.02","0.00"
"09:24:56","77.9","72.2","82.7","29.90","190","2.2","5","0.02","0.00"
"09:29:56","78","72","81.7","29.90","169","2.6","4.6","0.02","0.00"
"09:34:57","77.8","71.9","82","29.89","150","1.9","4","0.02","0.00"
"09:39:57","77.6","72.1","83.2","29.89","176","2.2","5","0.02","0.00"
"09:44:58","77.3","71.8","83.3","29.89","186","2.5","6","0.02","0.00"
"09:49:58","76.9","71.4","83.3","29.89","190","2.4","5.8","0.02","0.00"
"09:54:59","76.6","71.5","84.4","29.89","188","2","5","0.02","0.00"
"09:59:59","76.6","72.1","86.1","29.89","198","1.5","4","0.02","0.00"
"10:04:56","76.8","72.2","85.7","29.89","211","1.8","4","0.02","0.00"
"10:09:58","77.1","72.4","85.5","29.89","194","1.9","4","0.02","0.00"
"10:14:58","77.4","72.3","84.6","29.89","202","1.6","3.5","0.02","0.00"
"10:19:59","77.7","72.5","84.2","29.89","223","2","4","0.02","0.00"
"10:24:56","78.1","73.1","84.6","29.89","240","2.1","5","0.02","0.00"
"10:29:58","78.7","73.4","83.7","29.89","244","2.1","5","0.02","0.00"
"10:34:54","79.4","73.1","81.1","29.89","187","2.5","7","0.02","0.00"
"10:39:57","79.9","73.3","80.5","29.89","218","2.3","4.6","0.02","0.00"
"10:44:56","80.3","73.6","79.9","29.89","188","2.8","7","0.02","0.00"
"10:49:59","80.5","73.2","78.6","29.89","167","2.9","7","0.02","0.00"
"10:54:59","80.5","72.8","77.5","29.89","205","2.5","6.9","0.02","0.00"
"10:59:59","80.8","73.4","78.3","29.89","188","2.5","5","0.02","0.00"
"11:04:59","81.2","73.2","76.7","29.89","190","2.3","5","0.02","0.00"
"11:09:57","81.7","73.6","76.6","29.89","221","2.8","7","0.02","0.00"
"11:14:56","81.9","72.9","74.3","29.89","245","2.5","4.6","0.02","0.00"
"11:19:56","82.2","74.1","76.4","29.89","195","2.3","5","0.02","0.00"
"11:24:56","82.7","74.2","75.7","29.89","211","2.2","5","0.02","0.00"
"11:29:59","82.9","74.2","74.9","29.89","204","2.7","6","0.02","0.00"
"11:34:59","83.1","73.9","74.1","29.89","172","2.7","5","0.02","0.00"
"11:39:58","83.2","74.4","74.9","29.89","222","2.2","5","0.02","0.00"
"11:44:56","83.6","74.8","74.9","29.89","190","3.9","7","0.02","0.00"
"11:49:55","83.8","74.3","73.3","29.89","184","2.5","5","0.02","0.00"
"11:54:59","84.1","75.3","75","29.89","229","2.5","6","0.02","0.00"
"11:59:59","84.5","75.4","74.3","29.90","200","2.2","5","0.02","0.00"
"12:04:56","84.7","75.6","74.3","29.90","212","2.2","5","0.02","0.00"
"12:09:58","85.1","75.8","73.9","29.90","217","2.4","6","0.02","0.00"
"12:14:57","85.3","75.9","73.4","29.90","217","3","5","0.02","0.00"
"12:19:56","85.7","75.2","71.1","29.90","201","3.1","7","0.02","0.00"
"12:24:56","85.9","74.6","69.3","29.90","211","2.4","6","0.02","0.00"
"12:29:56","85.9","74.7","69.2","29.90","339","0.8","5.8","0.02","0.00"
"12:34:56","86","73.9","67.4","29.90","330","0.5","4.6","0.02","0.00"
"12:39:59","86","74.6","68.8","29.90","215","1.3","6","0.02","0.00"
"12:44:58","86.3","74.4","67.8","29.90","201","1.8","7","0.02","0.00"
"12:49:58","86.4","74.4","67.6","29.89","234","3.3","7","0.02","0.00"
"12:54:58","86.5","73.8","66","29.89","310","3.2","6","0.02","0.00"
"12:59:57","86.5","74.9","68.4","29.89","237","1.3","5","0.02","0.00"
"13:04:58","86.7","74.2","66.5","29.89","231","0.5","7","0.02","0.00"
"13:09:55","87","74.8","67.3","29.89","196","0.3","5","0.02","0.00"
"13:14:58","87.2","74.6","66.3","29.89","196","0.8","10","0.02","0.00"
"13:19:59","87.5","75.4","67.4","29.88","228","1.1","10.4","0.02","0.00"
"13:24:58","87.7","74.4","64.9","29.88","283","0.7","6","0.02","0.00"
"13:29:59","87.5","74.1","64.6","29.88","332","1","5","0.02","0.00"
"13:34:57","87.3","74.3","65.5","29.87","201","1","4","0.02","0.00"
"13:39:57","87.5","75","66.8","29.87","205","2.8","7","0.02","0.00"
"13:44:57","87.9","74.2","64.1","29.87","335","2.5","5.8","0.02","0.00"
"13:49:57","88.4","75.7","66.4","29.87","203","2.2","6","0.02","0.00"
"13:54:57","89","75.9","65.4","29.87","188","3.2","7","0.02","0.00"
"13:59:57","89.1","75.1","63.5","29.87","191","2.9","7","0.02","0.00"
"14:04:58","89.4","74.7","62","29.87","174","1.2","4.6","0.02","0.00"
"14:09:56","89.7","75.3","62.7","29.87","192","0.2","3.5","0.02","0.00"
"14:14:56","90","75.1","62","29.87","246","0.7","9","0.02","0.00"
"14:19:58","89.8","74.2","60.2","29.86","331","2.3","9.2","0.02","0.00"
"14:24:59","89.4","73.9","60.4","29.86","340","0.2","4","0.02","0.00"
"14:29:56","89.3","74.7","62.3","29.86","196","0.1","2.3","0.02","0.00"
"14:34:57","89.5","75.2","62.9","29.86","192","0.8","5","0.02","0.00"
"14:39:58","89.4","74.5","61.6","29.86","195","0.6","4.6","0.02","0.00"
"14:44:56","89.2","74.2","61.5","29.86","216","0.2","3","0.02","0.00"
"14:49:56","89","74.2","61.7","29.85","177","0.6","6","0.02","0.00"
"14:54:59","88.2","73.6","62.1","29.85","266","1.5","13","0.02","0.00"
"14:59:57","86.9","73.9","65.3","29.85","339","1.3","12.7","0.02","0.00"
"15:04:58","85.8","73.7","67.4","29.85","224","0.2","4","0.02","0.00"
"15:09:57","85","74","69.8","29.85","213","0","0","0.02","0.00"
"15:14:59","84.7","74.3","71.2","29.86","213","0","0","0.02","0.00"
"15:19:59","84.3","75.1","74","29.86","55","0","1.2","0.02","0.00"
"15:24:57","83.7","74.3","73.6","29.86","55","0","1.2","0.02","0.00"
"15:29:59","83.2","74","74","29.87","55","0","0","0.02","0.00"
"15:34:56","82.8","74.4","75.6","29.87","62","0.7","3","0.04","0.01"
"15:39:57","82","75.2","80","29.87","35","3.1","11.5","0.08","0.04"
"15:44:57","79.3","73.4","82.5","29.89","258","4.8","10.4","0.28","0.22"
"15:49:57","76.3","71.1","83.9","29.89","293","2","9","0.42","0.38"
"15:54:56","74.6","70.4","86.8","29.89","303","2","4","0.50","0.47"
"15:59:56","73.6","70.2","89.2","29.89","277","1.6","4","0.50","0.48"
"16:04:58","73.1","70.6","91.7","29.88","218","1.7","4","0.50","0.48"
"16:09:59","73","71","93.3","29.88","201","2.7","6","0.50","0.48"
"16:14:58","73.1","71.3","93.8","29.88","204","2.2","6","0.50","0.48"
"16:19:57","73.4","71.6","94","29.87","1","0.9","3.5","0.50","0.48"
"16:24:56","73.7","71.9","94","29.87","322","1.1","5","0.50","0.48"
"16:29:56","74","72.2","94","29.88","332","0.3","2","0.50","0.48"
"16:34:56","74.6","73.1","94.9","29.88","356","1.1","3.5","0.50","0.48"
"16:39:58","75.7","73.7","93.7","29.88","21","0.5","2.3","0.50","0.46"
"16:44:58","76.4","73.8","91.9","29.88","53","0.6","2.3","0.50","0.42"
"16:49:59","76.5","73.3","89.9","29.87","32","0.6","3","0.50","0.22"
"16:54:59","76.5","73.2","89.5","29.87","32","0.7","3.5","0.50","0.08"
"16:59:59","76.9","74","90.7","29.87","32","0.5","2.3","0.50","0.00"
"17:04:57","77.4","74","89.2","29.87","72","0.9","3.5","0.50","0.00"
"17:09:59","77.9","73.3","85.8","29.87","139","1.6","3.5","0.50","0.00"
"17:14:56","78.1","73.5","85.9","29.87","139","1.2","2.3","0.50","0.00"
"17:19:58","78.3","73.4","85.1","29.86","149","0.8","3.5","0.50","0.00"
"17:24:57","78.6","74.2","86.3","29.86","163","0.8","3.5","0.50","0.00"
"17:29:58","79.6","75.1","86.2","29.86","163","0.8","2.3","0.50","0.00"
"17:34:59","80.5","74.2","81.1","29.85","163","0.7","2.3","0.50","0.00"
"17:39:58","81.1","74.3","80.2","29.85","163","1","3.5","0.50","0.00"
"17:44:59","81.6","74.5","79.2","29.85","170","1.3","3.5","0.50","0.00"
"17:49:59","81.9","74.1","77.3","29.84","278","1.2","3.5","0.50","0.00"
"17:54:56","82.2","74.4","77.4","29.84","280","0.5","2.3","0.50","0.00"
"17:59:57","82.6","74.2","75.7","29.84","257","0.6","3","0.50","0.00"
"18:04:58","83","74.8","76.4","29.84","231","1","3.5","0.50","0.00"
"18:09:56","83.3","75","76.2","29.84","231","0.8","2.3","0.50","0.00"
"18:14:56","83.5","75.5","77.1","29.84","231","0.2","2.3","0.50","0.00"
"18:19:57","83.9","75.8","77","29.84","231","0","0","0.50","0.00"
"18:24:58","83.8","75.8","76.9","29.84","229","0","0","0.50","0.00"
"18:29:58","83.8","75.3","75.8","29.84","175","0","0","0.50","0.00"
"18:34:56","83.7","75.3","76","29.84","175","0","0","0.50","0.00"
"18:39:56","83.8","76.4","78.6","29.84","147","1","4","0.50","0.00"
"18:44:57","83.6","76.5","79.3","29.86","169","2.4","4","0.50","0.00"
"18:49:58","83.2","76.2","79.6","29.86","170","1.6","5","0.50","0.00"
"18:54:59","82.9","75.9","79.7","29.86","179","2.2","5","0.50","0.00"
"18:59:59","82.5","75.9","80.6","29.86","164","2.4","4","0.50","0.00"
"19:04:57","82.1","76.1","81.8","29.86","161","1.3","3.5","0.50","0.00"
"19:09:59","81.9","75.9","82","29.86","149","0.9","4","0.50","0.00"
"19:14:55","81.8","75.8","82.2","29.87","127","0.9","3.5","0.50","0.00"
"19:19:56","81.7","75.5","81.5","29.87","127","0.9","3.5","0.50","0.00"
"19:24:57","81.6","74.6","79.3","29.87","127","0.5","2.3","0.50","0.00"
"19:29:58","81.5","74.4","79.2","29.87","127","0","0","0.50","0.00"
"19:34:56","81.4","73.9","77.9","29.87","127","0","0","0.50","0.00"
"19:39:55","81.4","73.9","78","29.87","127","0","0","0.50","0.00"
"19:44:57","81.4","74.2","78.7","29.87","127","0","0","0.50","0.00"
"19:49:58","81.3","74.5","79.7","29.87","127","0","0","0.50","0.00"
"19:54:56","81.2","74.4","80","29.87","127","0","0","0.50","0.00"
"19:59:57","81.1","74.6","80.8","29.89","128","0","1.2","0.50","0.00"
"20:04:58","80.9","74.9","82","29.89","126","0","0","0.50","0.00"
"20:09:57","80.6","74.7","82.2","29.89","126","0","0","0.50","0.00"
"20:14:57","80.3","74.4","82.1","29.89","126","0","0","0.50","0.00"
"20:19:59","80.1","74.4","82.9","29.89","126","0","0","0.50","0.00"
"20:24:57","79.8","74.2","83","29.89","126","0","0","0.50","0.00"
"20:29:58","79.6","74.2","83.5","29.90","126","0","0","0.50","0.00"
"20:34:57","79.3","74.5","85.3","29.90","126","0","0","0.50","0.00"
"20:39:56","79","74.2","85.1","29.90","58","0","0","0.50","0.00"
"20:44:56","78.8","74.3","86","29.90","58","0","0","0.50","0.00"
"20:49:58","78.5","74.1","86.3","29.90","58","0","0","0.50","0.00"
"20:54:58","78.2","74","87","29.90","58","0","0","0.50","0.00"
"20:59:59","78","74.1","87.8","29.91","58","0","0","0.50","0.00"
"21:04:58","77.8","74","88","29.91","58","0","0","0.50","0.00"
"21:09:56","77.7","73.9","88.1","29.91","58","0","0","0.50","0.00"
"21:14:57","77.6","74.1","89","29.92","58","0","0","0.50","0.00"
"21:19:57","77.5","74","89","29.92","58","0","0","0.50","0.00"
"21:24:58","77.3","73.9","89.1","29.92","58","0","0","0.50","0.00"
"21:29:58","77.1","73.9","90","29.92","58","0","0","0.50","0.00"
"21:34:58","76.9","73.9","90.5","29.92","75","0","0","0.50","0.00"
"21:39:57","76.6","73.9","91.3","29.92","75","0","0","0.50","0.00"
"21:44:56","76.5","74","92","29.92","75","0","0","0.50","0.00"
"21:49:56","76.4","73.9","92","29.92","74","0","0","0.50","0.00"
"21:54:56","76.3","73.8","92","29.92","74","0","0","0.50","0.00"
"21:59:59","76.2","73.8","92.4","29.93","74","0","0","0.50","0.00"
"22:04:58","76","73.8","93","29.93","74","0","0","0.50","0.00"
"22:09:56","75.8","73.6","93","29.93","74","0","0","0.50","0.00"
"22:14:59","75.7","73.8","93.9","29.94","74","0","0","0.50","0.00"
"22:19:56","75.6","73.8","94","29.94","74","0","0","0.50","0.00"
"22:24:55","75.5","73.7","94","29.94","74","0","0","0.50","0.00"
"22:29:56","75.4","73.6","94","29.95","74","0","0","0.50","0.00"
"22:34:59","75.3","73.5","94","29.95","74","0","0","0.50","0.00"
"22:39:58","75.1","73.3","94","29.95","74","0","0","0.50","0.00"
"22:44:58","75","73.2","94","29.95","52","0.4","2.3","0.50","0.00"
"22:49:58","74.8","72.6","93.2","29.95","20","1.2","5","0.50","0.00"
"22:54:57","74.5","72.1","92.3","29.95","9","0.9","4.6","0.50","0.00"
"22:59:56","74.4","71.8","91.7","29.96","5","0.6","3.5","0.50","0.00"
"23:04:59","74.2","71.3","90.6","29.96","9","0.2","2.3","0.50","0.00"
"23:09:57","74.1","71","90","29.96","9","0","1","0.50","0.00"
"23:14:57","74","70.6","89.1","29.96","8","0.5","3.5","0.50","0.00"
"23:19:57","73.9","70.5","89","29.96","9","0","0","0.50","0.00"
"23:24:56","73.9","70.6","89.1","29.96","9","0.3","2.3","0.50","0.00"
"23:29:56","73.9","70.8","89.9","29.96","9","0.1","2.3","0.50","0.00"
"23:34:56","73.9","70.5","89.1","29.96","9","0","0","0.50","0.00"
"23:39:59","73.9","70.6","89.1","29.96","9","0","0","0.50","0.00"
"23:44:59","74","70.6","89.2","29.97","9","0","0","0.50","0.00"
"23:49:58","73.9","70.8","90.1","29.97","9","0","0","0.50","0.00"
"23:54:58","73.6","70.8","91","29.97","9","0","0","0.50","0.00"
"23:59:58","73.3","70.7","91.8","29.98","9","0","0","0.50","0.00"
